Race Coverage Navigation

TS # 1 / Borrego Springs, CA  2019

 


TS STATS
TS Distance 88.4 
Total Distance 88.4 
Miles To Go 3013.28 
TS Climbing 57 
Total Climbing
TS  Elevation
TS  Net Elevation 92 
Map Filename Open Map 
Directions Filename  
Latitude 33.23 
Longitude -116.76 
Google Map  TimeStation Map 


TS Arrival Data
Arr Ord  #/Name Arrival DT TS Dst Avg This TS Avg Overall Ascending
 1 R101 - Bobby Klatt  06/11/2019 23:38 88.4  10.96  10.96 
 2 R102 - Build-A-Bike (Adam Kidd)  06/11/2019 23:23 88.4  11.29  11.29 
 3 R112 - John Hoopingarner  06/11/2019 23:05 88.4  11.58  11.58 
 4 R119 - Team BlueLine (Martha Hall)  06/11/2019 22:22 88.4  12.42  12.42 
 5 R114 - Krishna Prakash  06/11/2019 22:31 88.4  12.45  12.45 
 6 R87 - Spoke Life Cycles / TRD (Lucas Spencer)  06/11/2019 22:40 88.4  12.48  12.48 
 7 424 - Team i RON man Veterans supporting Veterans  06/11/2019 23:37 88.4  12.48  12.48 
 8 R113 - Kerry Dragon  06/11/2019 22:26 88.4  12.63  12.63 
 9 R117 - ROGIE (Roger Foote)  06/11/2019 22:20 88.4  12.72  12.72 
 10 563 - Team Nico Ultracycling - In Fight against Cancer   06/11/2019 23:19 88.4  12.81  12.81 
 11 605 - Christian Echavarria  06/11/2019 23:13 88.4  12.91  12.91 
 12 411 - Geoff Brunner  06/11/2019 23:22 88.4  12.97  12.97 
 13 R84 - James Jason Ingels  06/11/2019 22:14 88.4  13.33  13.33 
 14 611 - Marcelo Soares " MIXIRICA "  06/11/2019 22:55 88.4  13.39  13.39 
 15 491 - BOURREAU JACQUES  06/11/2019 23:04 88.4  13.46  13.46 
 16 R207 - We Might Make It!  06/11/2019 21:34 88.4  13.67  13.67 
 17 T210 - Bike Wine Team  06/15/2019 21:37 88.4  13.67  13.67 
 18 T409 - Serpentine Golden Girls  06/15/2019 21:44 88.4  13.78  13.78 
 19 568 - Alexandra Meixner  06/11/2019 22:24 88.4  13.96  13.96 
 20 R110 - James Golding  06/11/2019 21:45 88.4  14.07  14.07 
 21 R104 - Team everve Christian (Christian Beichel)  06/11/2019 21:48 88.4  14.07  14.07 
 22 614 - Per Nielsen  06/11/2019 22:33 88.4  14.07  14.07 
 23 610 - Kabir Rachure  06/11/2019 22:27 88.4  14.45  14.45 
 24 608 - Elin Starup  06/11/2019 22:08 88.4  14.45  14.45 
 25 527 - TALABARDON (Herve Talabardon)  06/11/2019 22:35 88.4  14.45  14.45 
 26 R103 - Chris Davies  06/11/2019 21:36 88.4  14.57  14.57 
 27 R116 - Philippe May  06/11/2019 21:28 88.4  14.57  14.57 
 28 510 - John C. Tarlton  06/11/2019 22:32 88.4  14.61  14.61 
 29 R209 - Workhorses  06/11/2019 21:07 88.4  14.65  14.65 
 30 539 - Kari Rouvinen  06/11/2019 22:29 88.4  14.65  14.65 
 31 R105 - 2nd Chance Racing (Craig Johnson)  06/11/2019 21:31 88.4  14.69  14.69 
 32 607 - Sabine Bird (Team Bean)  06/11/2019 22:03 88.4  14.69  14.69 
 33 161 - Seana Hogan  06/11/2019 22:04 88.4  14.9  14.9 
 34 R106 - Damaceleste.com (Valentina Tanzi)  06/11/2019 21:14 88.4  14.94  14.94 
 35 T803 - Team EndoPark  06/15/2019 21:25 88.4  15.03  15.03 
 36 604 - Chieko Ozawa  06/11/2019 21:56 88.4  15.03  15.03 
 37 R121 - Ironmae (Rosecler Costa)  06/11/2019 21:06 88.4  15.07  15.07 
 38 T801 - Mind Over Matter  06/15/2019 21:21 88.4  15.11  15.11 
 39 R120 - Team Next Step (Peter Pedersen)  06/11/2019 21:13 88.4  15.11  15.11 
 40 T402 - EA/WFP RAAM Team  06/15/2019 21:03 88.4  15.11  15.11 
 41 R108 - Eric C Pearce  06/11/2019 21:19 88.4  15.15  15.15 
 42 T203 - JPsDuo  06/15/2019 20:49 88.4  15.33  15.33 
 43 399 - Valerio Zamboni  06/11/2019 22:20 88.4  15.33  15.33 
 44 416 - Leah Goldstein  06/11/2019 21:51 88.4  15.37  15.37 
 45 R115 - Kym Louie  06/11/2019 21:00 88.4  15.42  15.42 
 46 618 - GREGORY ROBINSON  06/11/2019 21:54 88.4  15.55  15.55 
 47 R122 - Kirk Gentle  06/11/2019 21:00 88.4  15.65  15.65 
 48 559 - Team Martin RAAM 2019 (Martin Bergmeister)  06/11/2019 22:04 88.4  15.69  15.69 
 49 R124 - Andres Rodriguez  06/11/2019 20:52 88.4  15.93  15.93 
 50 603 - Alan Bradley  06/11/2019 21:56 88.4  15.93  15.93 
 51 615 - Philipp Amhof  06/11/2019 21:48 88.4  15.93  15.93 
 52 329 - Peter Oyler  06/11/2019 22:07 88.4  16.02  16.02 
 53 T414 - Brazil Nuts  06/15/2019 20:51 88.4  16.22  16.22 
 54 529 - Isa Pulver  06/11/2019 21:31 88.4  16.27  16.27 
 55 R203 - Mike 'n' Jay Giretto con Amici  06/11/2019 20:34 88.4  16.32  16.32 
 56 622 - Thomas Odom-Team Kyle Pease Foundation  06/11/2019 21:34 88.4  16.37  16.37 
 57 R402 - SUWOS  06/11/2019 20:25 88.4  16.42  16.42 
 58 T806 - Team SuperMarrow  06/15/2019 20:56 88.4  16.52  16.52 
 59 T208 - Team Machine  06/15/2019 20:29 88.4  16.52  16.52 
 60 620 - Team Jefferson (Allan Jefferson)  06/11/2019 21:33 88.4  16.52  16.52 
 61 T417 - Team4RAAM 2019 powered by TGW Living Logistics  06/15/2019 20:42 88.4  16.84  16.84 
 62 621 - Themsen Ultracycling (Jacob Themsen)  06/11/2019 21:26 88.4  16.84  16.84 
 63 R202 - Laureus Alegra  06/11/2019 20:23 88.4  16.95  16.95 
 64 R400 - HTX Velo Femme  06/11/2019 20:17 88.4  16.95  16.95 
 65 367 - Daniela Genovesi  06/11/2019 21:20 88.4  16.95  16.95 
 66 T413 - TEAM BRASIL - SKIPPER  06/15/2019 20:33 88.4  17.11  17.11 
 67 R201 - IN OUR PRIME  06/11/2019 20:20 88.4  17.17  17.17 
 68 T205 - Prevent Breast Cancer powered by Endomag  06/15/2019 20:13 88.4  17.22  17.22 
 69 T415 - TEAM FIRE VELO 935  06/15/2019 20:33 88.4  17.22  17.22 
 70 T400 - Cantastic4  06/15/2019 20:17 88.4  17.28  17.28 
 71 612 - Markus K. Brandl  06/11/2019 21:25 88.4  17.28  17.28 
 72 288 - Dave Haase  06/11/2019 21:44 88.4  17.28  17.28 
 73 T418 - The Opportunists  06/15/2019 20:35 88.4  17.28  17.28 
 74 R200 - EY Legacy Builders 2019  06/11/2019 20:17 88.4  17.39  17.39 
 75 623 - Ultra Paka Racing Team (Daniel Polman)  06/11/2019 21:13 88.4  17.45  17.45 
 76 609 - Jakob Olsen  06/11/2019 21:23 88.4  17.56  17.56 
 77 T410 - Soap-Aid  06/15/2019 20:21 88.4  17.62  17.62 
 78 T406 - Operation Walk Midwest  06/15/2019 20:16 88.4  17.68  17.68 
 79 T405 - High Rollers  06/15/2019 20:15 88.4  17.68  17.68 
 80 T204 - Lucan CRC  06/15/2019 20:04 88.4  17.68  17.68 
 81 617 - SOLO.kiwi (Craig Harper)  06/11/2019 21:13 88.4  17.74  17.74 
 82 349 - Mark Pattinson  06/11/2019 21:33 88.4  17.8  17.8 
 83 R205 - Team OB2  06/11/2019 20:03 88.4  17.98  17.98 
 84 594 - Mauerhofer Thomas  06/11/2019 21:17 88.4  18.04  18.04 
 85 T200 - AIR RELAX GoPro TEAM BRASIL  06/15/2019 19:51 88.4  18.23  18.23 
 86 T206 - Project Linear Acceleration  06/15/2019 19:56 88.4  18.29  18.29 
 87 T808 - Antonia's Friends 2019  06/15/2019 20:25 88.4  18.42  18.42 
 88 T202 - Integra Medical - BAA Racing  06/15/2019 19:50 88.4  18.42  18.42 
 89 R401 - San Diego Sports Medicine/Zoca  06/11/2019 19:50 88.4  18.48  18.48 
 90 R51 - Fabio Silvestri  06/11/2019 20:24 88.4  18.48  18.48 
 91 T802 - Scorchers  06/15/2019 20:17 88.4  18.55  18.55 
 92 T416 - Team Rotary Raams Polio  06/15/2019 20:10 88.4  18.68  18.68 
 93 T403 - EKJ Denmark  06/15/2019 19:55 88.4  18.81  18.81 
 94 T207 - Team Life Time  06/15/2019 19:49 88.4  18.81  18.81 
 95 442 - Joe Barr  06/11/2019 21:10 88.4  19.01  19.01 
 96 T805 - Team Oceanside  06/15/2019 20:12 88.4  19.08  19.08 
 97 T804 - Team FSHD Skyland Trail  06/15/2019 20:10 88.4  19.15  19.15 
 98 T408 - Radeln-fuer-Kinder (Cycling-for-Kids)  06/15/2019 19:53 88.4  19.29  19.29 
 99 T807 - Team ZOE International  06/15/2019 20:11 88.4  19.29  19.29 
 100 279 - Marko Baloh  06/11/2019 21:10 88.4  19.5  19.5 
 101 T412 - Team Aspect  06/15/2019 19:53 88.4  19.57  19.57 
 102 377 - Christoph Strasser  06/11/2019 21:09 88.4  19.64  19.64 
 103 R403 - Team Viasat-Denver  06/11/2019 19:26 88.4  20.02  20.02 
 104 T201 - EAT WELL  06/15/2019 19:21 88.4  20.4  20.4 
 105 T407 - Julian Becker   06/15/2019 19:30 88.4  20.96  20.96 
 106 T404 - Gentlemen of speed  06/15/2019 19:22 88.4  21.39  21.39 
 107 R404 - Team Viasat - Carlsbad  06/11/2019 19:08 88.4  21.39  21.39 
 108 T411 - team alpha - tischlerei groemmer  06/15/2019 19:23 88.4  21.92  21.92 
 109 T401 - Data Techniques powered by Networks Centre  06/15/2019 19:12 88.4  22.01  22.01 
 110 T800 - Backstedt Racing Project 14  06/15/2019 19:28 88.4  22.19  22.19 
 111 R111 - Jennifer Orr  06/11/2019 18:39 88.4  26.26  26.26